Погода в Шестиозерском

Россия / Архангельская область     61˚48′34″N   40˚12′10″E
темп.,
°C
ветер,
м/с
пор.,
м/с
влажн.,
%
обл.,
%
осадки,
мм/ч
давл.,
гПа
погр.,
м
15 января, пт
пт1500:00−24˚св3697100 0.1 1017319
03:00−24˚ссв3696100 0.2 1016305
06:00−25˚ссв2697100 0.1 1015255
09:00−25˚ссв2597100 0.2 1016221
12:00−25˚с2396100 0.1 1016178
15:00−24˚с2396100 0.1 1017165
18:00−27˚ссв129889 0.0 101625
21:00−27˚ссв129844 0.0 101922
16 января, сб
сб1600:00−27˚ссв229854 0.0 101839
03:00−27˚ссв229854 0.0 102047
06:00−26˚ссв259998 0.0 1018139
09:00−26˚ссв269999 0.0 1018116
12:00−23˚ссв369133 0.0 1018189
15:00−24˚ссв269121 0.0 1017122
18:00−24˚ссв379917 0.0 1015129
21:00−24˚с3610053 0.0 1015133
17 января, вс
вс1700:00−24˚с2410075 0.0 101373
03:00−24˚с229967 0.0 101420
06:00−23˚сз129877 0.0 101320
09:00−21˚з2310084 0.0 101351
12:00−18˚з259792 0.0 1013169
15:00−18˚зюз369890 0.0 1012156
18:00−17˚зюз3799100 0.0 1012152
21:00−16˚зюз3697100 0.1 1012181
18 января, пн
пн1800:00−15˚зюз3696100 0.1 1012197
03:00−14˚зюз269798 0.2 1012163
06:00−16˚зюз239994 0.1 101274
09:00−16˚зюз229994 0.1 101335
12:00−13˚зюз259897 0.0 1014144
15:00−13˚юз229898 0.1 101467
18:00−13˚юз239795 0.1 101594
21:00−14˚юз229794 0.2 101643
19 января, вт
вт1900:00−14˚юз229797 0.1 101779
03:00−13˚юз249798 0.2 1017117
06:00−14˚ююз2498100 0.1 1016111
09:00−14˚ююз3797100 0.1 1017166
12:00−12˚ююз3796100 0.0 1017229
15:00−12˚ююз3897100 0.1 1016221
18:00−13˚ююз4996100 0.1 1017219
21:00−14˚ююз41097100 0.1 1017234